Wind_Speed
43 43 44 43 43 43 43 42 42 42 41 41 41 42 42 41 41 41 41 41 41 40 40 40 40 39 38 38 38 37 37 36 36 36 36 36 35 35 34 34 34 34 34
43 44 45 44 45 44 44 44 44 43 43 43 43 42 43 43 43 42 42 42 42 42 42 42 41 41 40 40 39 39 38 38 38 37 38 38 37 37 37 36 35 35 35
43 44 45 46 46 45 45 44 44 44 44 44 44 44 45 45 45 44 44 44 44 43 43 43 43 42 41 41 40 40 40 40 40 40 39 39 38 38 38 37 36 35 35
43 44 45 46 46 46 45 45 45 45 45 45 46 46 47 46 45 46 45 46 46 45 45 45 44 43 43 43 42 41 41 41 41 41 41 40 40 38 38 37 37 36 37
41 43 44 45 46 46 46 46 46 46 46 47 46 46 46 47 47 48 48 47 47 47 47 47 46 45 45 44 44 43 42 42 42 42 42 41 40 39 39 38 37 38 38
40 42 43 44 45 46 47 47 47 48 48 48 47 47 47 47 47 48 49 48 48 48 49 48 47 47 46 45 45 45 44 43 43 43 42 42 41 40 40 40 39 39 39
39 40 42 44 45 46 47 47 48 48 49 48 48 48 47 47 48 48 48 48 48 49 49 49 49 49 48 47 47 46 45 45 44 44 43 43 42 41 41 41 41 41 41
39 40 41 43 44 46 47 47 47 48 49 49 49 50 49 48 48 48 48 49 49 48 49 49 49 49 49 49 48 48 48 47 46 45 44 44 43 43 43 42 42 42 43
38 40 41 42 44 45 46 47 47 48 49 50 50 51 50 49 49 49 49 49 49 49 49 50 50 50 50 49 49 49 49 48 48 47 46 45 44 44 44 44 44 43 43
38 39 41 42 43 45 46 47 47 48 49 49 49 50 50 49 49 50 49 50 49 48 48 48 49 50 51 51 51 51 51 50 49 48 47 46 46 45 45 45 45 45 44
37 39 40 41 42 44 45 45 46 46 47 47 47 48 49 49 49 50 50 49 49 49 49 49 49 49 49 50 51 50 51 50 49 48 48 48 47 47 46 46 46 46 46
37 37 38 40 41 42 43 43 44 45 45 45 46 46 47 48 47 48 49 49 49 49 48 49 49 49 48 49 50 50 50 50 50 50 49 48 48 47 47 47 47 47 47
37 37 37 38 39 41 41 41 42 43 44 45 45 45 45 46 47 46 47 47 47 48 48 47 48 48 49 49 49 49 49 49 49 49 49 49 49 48 48 48 48 47 47
37 37 38 38 39 40 41 42 42 43 44 45 45 46 46 46 47 46 45 47 47 48 49 49 48 48 48 49 49 49 48 48 48 48 48 49 49 48 48 48 48 48 48
37 37 37 38 39 40 40 41 42 43 44 44 45 45 45 45 45 46 46 46 48 48 48 49 48 47 47 48 48 49 48 47 47 47 47 47 48 48 49 48 48 47 47
36 36 37 37 38 39 40 40 42 42 43 43 44 45 45 45 45 45 46 46 46 47 47 47 47 47 47 48 48 48 48 48 47 47 46 46 47 47 48 48 48 48 47
34 35 36 36 36 37 38 38 39 40 41 42 43 44 44 44 44 45 46 45 45 45 44 45 46 47 47 47 48 48 48 47 47 46 46 46 46 47 48 48 48 47 47
33 33 34 35 35 35 36 38 38 38 39 40 41 42 43 43 42 43 44 44 44 44 44 46 46 46 46 46 46 46 46 46 45 45 45 45 46 47 47 46 46 46 46
33 33 33 33 33 34 35 36 37 38 37 38 39 40 41 41 41 42 43 43 43 43 44 45 46 46 46 46 45 45 45 44 44 45 46 46 46 46 47 47 46 47 46
32 33 33 33 33 33 33 34 35 36 36 37 38 38 39 39 40 40 41 42 43 43 43 44 44 44 44 45 45 45 45 45 45 45 46 46 46 46 46 46 46 46 46
32 32 32 32 32 32 32 32 33 34 35 35 36 37 37 38 38 38 39 40 41 41 42 42 43 43 43 44 45 44 44 44 45 45 44 44 45 45 45 45 45 45 45
33 32 32 32 32 32 32 31 31 32 32 33 34 35 35 36 37 38 38 39 40 40 41 41 42 42 42 43 43 43 43 43 43 43 43 43 43 44 44 44 44 44 45
33 33 32 31 31 31 31 30 31 31 32 32 33 34 34 35 36 36 36 37 38 39 40 40 41 41 41 41 41 41 41 41 42 41 42 42 42 42 43 43 43 43 44
32 32 32 31 31 31 32 30 30 30 31 32 33 33 34 35 36 35 35 36 36 36 37 39 39 39 40 40 40 40 40 40 40 40 41 41 41 41 41 42 42 42 42
32 31 31 31 30 30 31 31 30 30 30 31 32 33 33 33 34 34 34 34 34 35 36 37 38 38 38 39 39 39 39 39 39 39 39 40 40 40 41 41 42 41 41
30 30 29 29 29 28 28 28 28 29 29 30 31 32 32 33 34 34 34 34 34 34 35 36 37 37 37 38 38 38 38 38 37 37 37 38 39 39 40 40 41 41 40
Wind_Direction
255 255 254 253 253 253 253 252 252 253 252 252 252 252 253 253 252 252 251 250 249 249 248 248 248 248 248 247 248 249 248 247 247 248 249 251 251 251 251 252 252 252 252
254 254 254 253 252 252 253 253 253 252 252 252 252 252 252 253 253 252 251 250 249 249 248 247 248 249 248 248 249 249 249 248 248 249 250 250 251 251 252 252 253 253 252
254 254 253 253 252 252 252 252 252 252 252 252 252 252 251 252 251 250 250 249 248 249 248 247 247 247 248 249 249 249 249 249 249 249 250 250 251 252 253 252 254 254 254
256 254 253 253 252 251 251 251 251 252 252 252 253 253 252 251 251 251 251 249 248 248 248 247 247 247 248 249 250 250 250 249 250 251 251 251 251 252 254 254 254 255 255
258 256 254 253 252 252 251 251 251 252 253 253 252 253 251 251 251 251 250 249 248 248 248 246 246 246 248 250 250 249 249 249 250 250 251 252 252 252 254 254 255 255 255
261 258 256 254 254 253 252 252 252 253 253 253 252 252 252 251 251 251 250 249 248 248 247 245 245 246 247 248 248 247 247 248 249 250 252 252 252 252 253 254 254 255 255
262 260 258 256 255 254 253 252 252 253 253 253 253 253 253 252 251 250 250 249 248 248 246 245 245 246 246 247 247 247 248 249 250 250 251 252 252 252 253 254 255 255 256
264 261 260 258 256 254 253 253 253 253 253 253 253 253 253 252 250 250 250 249 249 249 247 245 245 246 247 247 247 248 249 250 251 251 251 252 252 252 253 254 255 255 255
267 264 262 260 258 256 254 253 253 253 254 254 254 254 253 251 250 250 250 249 250 249 248 247 246 246 246 247 248 248 249 250 250 251 252 252 252 252 253 254 255 256 255
270 266 264 263 261 259 257 256 254 254 253 253 254 253 252 251 250 249 249 249 248 248 247 247 247 246 247 247 247 248 248 249 250 251 252 252 253 254 255 255 255 255 256
273 270 267 265 262 260 259 257 255 253 253 253 252 252 252 251 251 249 249 248 247 246 245 246 247 248 248 247 246 247 247 248 250 251 252 252 253 254 255 255 255 256 256
274 271 268 265 262 260 258 257 256 254 253 252 252 252 252 251 250 249 248 247 245 245 246 247 248 248 248 247 246 247 247 248 249 250 251 251 252 253 254 255 256 256 257
274 272 269 267 263 260 257 255 254 253 253 251 251 251 252 251 250 248 247 245 244 246 247 248 248 247 248 247 247 246 246 247 248 249 250 251 252 253 254 255 256 257 257
276 274 272 268 264 261 259 255 253 252 253 252 251 250 250 250 250 248 247 245 244 245 246 247 247 247 247 247 246 246 246 247 248 249 250 251 252 253 254 256 257 257 258
277 274 272 269 266 263 261 258 255 254 254 253 250 250 251 250 249 249 248 247 246 246 246 247 247 246 247 246 246 246 247 247 248 249 250 251 253 254 255 256 257 258 259
280 276 274 272 269 266 263 261 258 257 256 254 251 250 250 250 249 249 248 248 247 247 247 246 246 247 247 247 247 247 247 247 249 250 251 253 254 255 255 256 256 257 258
282 279 277 275 271 268 265 262 260 259 258 255 253 251 250 250 249 249 248 247 246 246 245 245 244 246 247 247 247 247 248 249 250 251 252 252 253 254 255 256 256 257 257
285 282 280 278 275 271 267 263 261 260 259 256 254 252 251 250 249 248 247 247 246 246 245 244 244 245 246 246 247 248 249 250 250 251 252 252 252 253 255 255 256 256 256
286 284 282 280 278 274 270 266 262 260 259 256 254 253 252 251 249 248 246 245 245 245 245 246 246 246 246 246 247 248 249 250 251 252 252 253 253 253 255 255 255 256 256
288 286 284 281 279 276 273 269 263 259 258 256 254 252 252 251 249 248 246 245 245 245 245 244 244 246 246 246 247 249 249 251 252 253 253 253 253 253 254 255 255 256 257
289 288 285 282 279 276 274 270 265 261 258 256 254 253 251 249 247 247 246 245 245 245 244 244 244 245 245 245 247 248 249 251 252 252 253 253 252 252 253 254 256 257 257
290 289 286 283 280 278 276 272 266 260 256 255 254 252 251 248 247 248 247 246 246 245 244 245 244 244 244 245 246 247 249 250 251 252 252 252 252 253 253 255 256 257 257
289 289 288 285 282 279 277 273 267 261 257 256 255 254 253 250 249 248 248 247 247 246 245 244 244 244 244 244 246 246 247 248 249 251 252 253 253 253 254 255 256 256 258
290 289 287 285 283 279 277 273 267 262 258 255 253 253 252 250 248 247 248 247 246 245 244 243 242 243 243 244 245 246 247 247 249 251 252 253 253 253 254 255 256 257 259
291 289 287 285 284 281 277 272 268 262 258 255 252 251 251 249 246 246 247 246 244 243 243 242 242 242 243 244 244 245 247 247 249 250 252 252 253 253 254 255 255 257 258
290 289 288 286 285 282 278 273 267 263 258 255 252 250 249 248 246 246 245 244 244 243 243 243 243 243 244 244 245 246 247 246 247 249 251 252 253 254 254 255 255 255 256
Height
5708 5709 5711 5713 5715 5717 5718 5720 5720 5722 5723 5725 5726 5728 5730 5732 5734 5735 5737 5739 5741 5743 5745 5748 5751 5753 5756 5759 5761 5763 5765 5766 5768 5770 5772 5773 5775 5777 5779 5781 5783 5784 5786
5695 5697 5698 5700 5702 5704 5706 5708 5709 5710 5712 5714 5715 5717 5719 5721 5723 5725 5726 5728 5730 5732 5734 5738 5741 5743 5746 5749 5751 5754 5756 5757 5759 5761 5763 5765 5767 5769 5771 5773 5775 5776 5778
5682 5684 5685 5687 5689 5691 5693 5695 5697 5698 5700 5702 5703 5705 5707 5709 5711 5713 5715 5717 5719 5721 5724 5727 5730 5733 5736 5739 5741 5744 5746 5748 5750 5752 5754 5756 5758 5760 5762 5764 5766 5767 5769
5668 5670 5672 5674 5676 5678 5680 5682 5684 5686 5688 5689 5690 5693 5695 5696 5698 5701 5703 5705 5707 5710 5712 5716 5719 5722 5725 5728 5731 5734 5736 5738 5740 5742 5744 5747 5749 5751 5753 5755 5757 5758 5760
5655 5657 5658 5660 5663 5665 5667 5669 5671 5673 5675 5676 5678 5679 5681 5684 5686 5688 5690 5693 5695 5697 5700 5704 5708 5711 5714 5717 5720 5723 5725 5728 5730 5732 5734 5736 5739 5741 5743 5746 5748 5749 5751
5643 5644 5646 5647 5649 5651 5653 5655 5657 5659 5661 5663 5665 5666 5668 5670 5672 5674 5676 5679 5682 5685 5688 5691 5695 5699 5702 5706 5709 5712 5714 5717 5720 5722 5724 5726 5729 5731 5734 5736 5739 5740 5742
5631 5632 5633 5635 5637 5638 5640 5642 5644 5646 5647 5649 5651 5653 5654 5656 5659 5661 5663 5666 5669 5672 5675 5678 5682 5686 5690 5693 5697 5700 5703 5706 5708 5711 5714 5716 5719 5721 5723 5726 5728 5730 5732
5620 5620 5621 5622 5623 5624 5626 5628 5630 5632 5633 5635 5637 5639 5640 5642 5645 5647 5649 5653 5655 5658 5661 5665 5669 5673 5677 5681 5684 5688 5691 5694 5697 5700 5703 5705 5708 5710 5713 5715 5717 5719 5722
5609 5609 5609 5609 5610 5611 5613 5614 5616 5618 5619 5621 5623 5624 5626 5628 5631 5633 5636 5639 5642 5645 5648 5652 5656 5660 5664 5667 5671 5675 5679 5682 5685 5688 5691 5694 5697 5699 5701 5704 5706 5708 5710
5597 5597 5597 5597 5597 5598 5599 5600 5602 5603 5605 5607 5609 5610 5612 5614 5617 5620 5623 5625 5628 5631 5635 5638 5642 5646 5650 5654 5658 5662 5666 5669 5672 5676 5679 5682 5685 5687 5690 5692 5694 5696 5698
5585 5585 5585 5585 5585 5585 5586 5587 5589 5590 5592 5594 5595 5597 5599 5601 5603 5606 5609 5612 5615 5619 5623 5626 5630 5633 5637 5640 5644 5648 5652 5656 5659 5663 5666 5670 5672 5675 5677 5680 5682 5684 5686
5574 5573 5573 5572 5572 5573 5573 5575 5576 5577 5579 5581 5582 5584 5586 5588 5590 5593 5596 5599 5602 5606 5610 5613 5617 5620 5624 5627 5631 5635 5639 5643 5647 5650 5653 5657 5659 5662 5665 5667 5669 5672 5673
5563 5562 5561 5560 5560 5560 5561 5562 5563 5564 5566 5568 5570 5571 5573 5576 5578 5581 5584 5586 5590 5593 5597 5600 5604 5607 5611 5615 5618 5622 5626 5630 5634 5637 5641 5644 5647 5650 5652 5655 5657 5659 5661
5552 5551 5550 5549 5548 5548 5549 5549 5550 5551 5553 5555 5557 5559 5561 5563 5565 5568 5571 5574 5577 5581 5584 5587 5591 5595 5598 5602 5606 5610 5613 5617 5621 5624 5628 5631 5634 5637 5639 5642 5644 5646 5648
5541 5539 5538 5537 5537 5536 5537 5537 5538 5539 5540 5542 5544 5547 5549 5551 5553 5556 5559 5561 5565 5568 5571 5575 5578 5582 5586 5589 5593 5597 5601 5605 5608 5612 5615 5618 5621 5624 5626 5629 5631 5633 5635
5530 5528 5526 5525 5525 5525 5525 5525 5526 5527 5528 5530 5531 5534 5536 5538 5540 5543 5546 5549 5552 5555 5558 5562 5566 5570 5573 5577 5581 5584 5588 5592 5596 5599 5602 5605 5608 5610 5613 5615 5618 5620 5622
5519 5517 5515 5514 5513 5512 5513 5513 5514 5514 5515 5517 5519 5521 5523 5525 5528 5530 5533 5536 5539 5542 5546 5550 5554 5557 5561 5564 5568 5572 5576 5579 5583 5586 5589 5592 5595 5597 5600 5602 5604 5606 5608
5509 5507 5505 5503 5502 5501 5501 5501 5501 5502 5503 5505 5507 5508 5510 5513 5515 5517 5520 5523 5527 5530 5534 5537 5541 5545 5549 5552 5556 5559 5563 5567 5570 5573 5576 5579 5582 5584 5586 5589 5591 5593 5595
5499 5497 5494 5493 5491 5490 5489 5489 5490 5490 5491 5493 5494 5496 5498 5501 5503 5506 5508 5511 5514 5518 5521 5525 5529 5533 5536 5540 5544 5547 5551 5555 5558 5561 5564 5566 5569 5571 5574 5576 5579 5581 5583
5489 5486 5484 5482 5481 5479 5478 5478 5478 5479 5480 5481 5483 5485 5487 5489 5492 5494 5496 5499 5503 5506 5509 5513 5517 5521 5524 5528 5532 5535 5539 5543 5546 5549 5551 5554 5556 5558 5560 5563 5566 5568 5570
5479 5476 5474 5472 5470 5469 5468 5467 5467 5467 5468 5470 5471 5473 5475 5478 5480 5483 5485 5488 5491 5495 5498 5501 5505 5509 5512 5516 5520 5523 5527 5530 5533 5536 5538 5541 5543 5546 5548 5550 5553 5555 5557
5469 5467 5464 5462 5460 5458 5457 5456 5456 5456 5457 5459 5460 5462 5464 5466 5469 5472 5474 5477 5480 5483 5487 5490 5494 5497 5501 5504 5508 5511 5515 5518 5521 5524 5526 5528 5531 5533 5536 5538 5540 5542 5544
5459 5457 5454 5452 5450 5448 5447 5446 5445 5445 5447 5448 5450 5451 5453 5455 5458 5460 5463 5466 5469 5472 5475 5479 5483 5486 5489 5493 5496 5499 5503 5506 5509 5511 5514 5516 5519 5521 5524 5526 5528 5530 5532
5449 5447 5445 5443 5440 5438 5437 5436 5435 5435 5436 5438 5439 5441 5443 5445 5448 5450 5453 5455 5458 5461 5464 5468 5472 5475 5479 5482 5485 5488 5492 5495 5497 5500 5503 5505 5507 5509 5512 5514 5516 5518 5519
5440 5437 5435 5433 5430 5428 5427 5426 5425 5425 5427 5428 5429 5431 5433 5435 5437 5440 5443 5445 5448 5451 5455 5458 5461 5465 5468 5471 5474 5477 5481 5484 5486 5489 5491 5494 5496 5498 5500 5502 5504 5505 5507
5430 5427 5425 5423 5421 5419 5417 5416 5416 5416 5417 5418 5420 5421 5423 5425 5427 5430 5433 5435 5439 5441 5444 5447 5451 5454 5457 5460 5463 5466 5469 5472 5475 5478 5480 5483 5485 5487 5488 5490 5492 5493 5495